AirNav   Pilot Hours Calculator
 
 368 users online  

KRAL Riverside Municipal Airport
Riverside, California, USA

GOING TO RIVERSIDE?


FAA INFORMATION EFFECTIVE 20 MAY 2021

Location

FAA Identifier: RAL
Lat/Long: 33-57-06.8000N 117-26-42.4000W
33-57.113333N 117-26.706667W
33.9518889,-117.4451111
(estimated)
Elevation: 818.9 ft. / 249.6 m (surveyed)
Variation: 14E (2000)
From city: 4 miles SW of RIVERSIDE, CA
Time zone: UTC -7 (UTC -8 during Standard Time)
Zip code: 92503

Airport Operations

Airport use: Open to the public
Activation date: 04/1940
Control tower: yes
ARTCC: LOS ANGELES CENTER
FSS: RIVERSIDE FLIGHT SERVICE STATION
NOTAMs facility: RAL (NOTAM-D service available)
Attendance: M-F 0700-1700, ALL S-S 0600-1600
Pattern altitude: TPA LGT ACFT 1000'; JET AND ALL OTHER ACFT 1500'.
Wind indicator: lighted
Segmented circle: yes
Lights: ACTVT MIRL RWYS 09/27 & 16/34; TWY LGTS; HELI PERI LGTS - CTAF. PAPI RWYS 09, 27 & 34 OPR CONSLY.
Beacon: white-green (lighted land airport)
Operates sunset to sunrise.

Airport Communications

CTAF: 121.0
UNICOM: 122.95
ATIS: 128.8
WX ASOS: 128.8 (951-352-4392)
RIVERSIDE GROUND: 121.7 [0700-2000]
RIVERSIDE TOWER: 121.0 257.8 [0700-2000]
SOCAL APPROACH: 135.4
SOCAL DEPARTURE: 135.4
WX AWOS-3PT at AJO (8 nm SW): 132.175 (951-340-4764)
WX ASOS at CNO (10 nm W): PHONE 909-393-5823
WX ASOS at ONT (10 nm NW): PHONE 909-937-2186
WX AWOS-3 at SBD (14 nm NE): 124.175 (909-382-0067)
WX AWOS-3P at CCB (15 nm NW): 119.525 (909-985-4731)
WX AWOS-3PT at POC (19 nm NW): 124.4 (909-596-1523)

Nearby radio navigation aids

VOR radial/distance  VOR name  Freq  Var
RAL at fieldRIVERSIDE VOR112.4014E
PDZr050/4.7PARADISE VORTAC112.2015E
HDFr295/(16.7)HOMELAND VOR113.4014E
POMr099/18.6POMONA VORTAC110.4015E
ELBr027/21.8EL TORO VOR/DME117.2014E
SLIr057/32.0SEAL BEACH VORTAC115.7015E
VCVr170/38.6VICTORVILLE VOR/DME109.0514E

 
NDB name  Hdg/Dist  Freq  Var  ID
PETIS198/7.439714ESB ... -...

Airport Services

Fuel available: 100LL JET-A
100LL:FOR FUEL AFTER HRS CALL (951) 321-0091.
Parking: tiedowns
Airframe service: MAJOR
Powerplant service: MAJOR
Bottled oxygen: HIGH/LOW
Bulk oxygen: HIGH/LOW

Runway Information

Runway 9/27

Dimensions: 5401 x 100 ft. / 1646 x 30 m
Surface: asphalt, in good condition
Weight bearing capacity: 
Single wheel: 48.0
Double wheel: 70.0
Double tandem: 110.0
Runway edge lights: medium intensity
RUNWAY 9  RUNWAY 27
Latitude: 33-57.233243N33-57.032202N
Longitude: 117-27.118152W117-26.077353W
Elevation: 760.4 ft.818.6 ft.
Traffic pattern: leftleft
Runway heading: 089 magnetic, 103 true269 magnetic, 283 true
Markings: precision, in good conditionnonprecision, in good condition
Visual slope indicator: 4-light PAPI on left (3.00 degrees glide path)4-light PAPI on left (3.00 degrees glide path)
Runway end identifier lights: nono
Touchdown point: yes, no lightsyes, no lights
Instrument approach: ILS
Obstructions: none37 ft. gnd, 1155 ft. from runway, 520 ft. right of centerline, 25:1 slope to clear
SUPPLEMENTAL WIND CONE 0 FT FM THR 350 FT S OF RY CNTRLN.

Runway 16/34

Dimensions: 2850 x 50 ft. / 869 x 15 m
Surface: asphalt, in fair condition
Weight bearing capacity: 
Single wheel: 40.0, LTD BY ARPT OPERATOR TO 12500 LBS SINGLE WHEEL GEAR.
Double wheel: 50.0
Double tandem: 80.0
Runway edge lights: medium intensity
RUNWAY 16  RUNWAY 34
Latitude: 33-57.309280N33-56.839580N
Longitude: 117-26.918280W117-26.903997W
Elevation: 774.5 ft.750.6 ft.
Traffic pattern: rightleft
Runway heading: 165 magnetic, 179 true345 magnetic, 359 true
Markings: basic, in good conditionbasic, in good condition
Visual slope indicator: 2-light PAPI on left (3.00 degrees glide path)
Runway end identifier lights: nono
Touchdown point: yes, no lightsyes, no lights

Helipad H1

Dimensions: 60 x 60 ft. / 18 x 18 m
Surface: asphalt, in good condition
Runway edge lights: PERI
Traffic pattern: leftleft

Airport Ownership and Management from official FAA records

Ownership: Publicly-owned
Owner: CITY OF RIVERSIDE
6951 FLIGHT ROAD
RIVERSIDE, CA 92504
Phone 951-351-6113
Manager: MR. KIM ELLIS
6951 FLIGHT ROAD
RIVERSIDE, CA 92504
Phone 951-351-6113

Airport Operational Statistics

Aircraft based on the field: 187
Single engine airplanes: 164
Multi engine airplanes: 15
Jet airplanes: 4
Helicopters: 4
    
Aircraft operations: avg 318/day *
61% local general aviation
37% transient general aviation
2% air taxi
<1% military
* for 12-month period ending 31 December 2020

Additional Remarks

ACFT DEP RYS 09 & 27 NOT VSBL TO ACFT AT OTHER END OF RY.
NUMEROUS POWER LINES 1,780 - 2,887 FEET NORTH OF RY 16 THLD AT OR BLO 80 FEET AGL.
S 1,400 FT OF RWY 34 & TWY J AND S 500 FT OF TWY B NOT VSB FM TWR.
TWY E STEEP SLOPE
TWY L NOT VSB FM TWR.
FOR CD WHEN ATCT CLSD CTC SOCAL APCH AT 800-448-3724.
TURBINE ENG ACFT: PREFERRED ROLLING TKOF FOR NOISE MGMT.
RWY 27 DEP: FOR NOISE MGMT, AFTER DEP TURN RIGHT 10 DEGS; ASSUME CRS AFTER RCHG 1500 MSL.
NO HIGH PWR ENG MAINT RUNS BTN 2200-0700 LCL.
FOR NOISE MGMT: NO TURNS BFR ARPT BDRY AND 1500 MSL.
RWY 27: -20 FT DITCH 50 FT FM RWY 27 THLD.
POWER PLANT 3,000 FT NORTH OF RY 16 THLD PRODUCING THERMAL PLUME, AVOIDANCE ADZD,

Instrument Procedures

NOTE: All procedures below are presented as PDF files. If you need a reader for these files, you should download the free Adobe Reader.

NOT FOR NAVIGATION. Please procure official charts for flight.
FAA instrument procedures published for use from 20 May 2021 at 0901Z to 17 June 2021 at 0900z.

 
STARs - Standard Terminal Arrivals
SETER FIVE **CHANGED**   download (282KB)
ZIGGY SEVEN **CHANGED**   2 pages: [1] [2] (460KB)
 
IAPs - Instrument Approach Procedures
ILS OR LOC RWY 09   download (345KB)
RNAV (GPS) RWY 09   download (311KB)
RNAV (GPS) RWY 27   download (289KB)
VOR RWY 09   download (259KB)
VOR-A   download (273KB)
NOTE: Special Alternate Minimums apply   download (31KB)
 
RIVERSIDE TWO (OBSTACLE)   download (331KB)
NOTE: Special Take-Off Minimums/Departure Procedures apply   download (343KB)

Other nearby airports with instrument procedures:

KRIR - Flabob Airport (3 nm NE)
KAJO - Corona Municipal Airport (8 nm SW)
KCNO - Chino Airport (10 nm W)
KONT - Ontario International Airport (10 nm NW)
KRIV - March Air Reserve Base (10 nm SE)
KSBD - San Bernardino International Airport (14 nm NE)
KCCB - Cable Airport (15 nm NW)
KREI - Redlands Municipal Airport (17 nm NE)
KPOC - Brackett Field Airport (19 nm NW)
 
Loc | Ops | Rwys | IFR | FBO | Links
Com | Nav | Svcs | Stats | Notes

San Bernardino International Airport Authority
 
Area around KRAL (Riverside Municipal Airport)
 
Road maps at: MapQuest Bing Google
 
Aerial photo
WARNING: Photo may not be current or correct
Aerial photo of KRAL (Riverside Municipal Airport)
Photo by Fred Emmert AirViews.com
Photo taken 10-Dec-2014
looking northeast.

Do you have a better or more recent aerial photo of Riverside Municipal Airport that you would like to share? If so, please send us your photo.

 
Sectional chart

 
Airport diagram
Diagram of KRAL (Riverside Municipal Airport)
Download PDF
of official airport diagram from the FAA

 
Airport distance calculator
Flying to Riverside Municipal Airport? Find the distance to fly.

From to KRAL

Sunrise and sunset
Times for 13-Jun-2021
 Local
(UTC-7)
 Zulu
(UTC)
Morning civil twilight05:1012:10
Sunrise05:3912:39
Sunset20:0103:01
Evening civil twilight20:3003:30

Current date and time
Zulu (UTC)  13-Jun-2021 07:32:42
Local (UTC-7)  13-Jun-2021 00:32:42
 
METAR
KRAL 130653Z AUTO 00000KT 10SM CLR 21/08 A2988 RMK AO2 SLP100 T02110078
KAJO 
8nm SW 
130656Z AUTO 00000KT 10SM CLR 16/08 A2988 RMK AO2 SLP111 T01610083
KCNO 
9nm W 
130653Z AUTO 00000KT 10SM CLR 20/10 A2988 RMK AO2 SLP113 T02000100
KONT 
9nm NW 
130653Z 00000KT 10SM CLR 22/09 A2988 RMK AO2 SLP100 T02170089
KRIV 
10nm SE 
130658Z AUTO 33004KT 10SM CLR 18/05 A2989 RMK AO2 SLP108 T01750048
KSBD 
14nm NE 
130720Z AUTO 00000KT 10SM CLR 22/06 A2989 RMK AO2 T02210063
KCCB 
15nm NW 
119.525 909-985-4731
130715Z AUTO 00000KT 10SM 20/07 A2990 RMK AO2
KPOC 
18nm NW 
130347Z 27009KT 10SM CLR 23/03 A2987 RMK LAST
TAF
KONT 
9nm NW 
130520Z 1306/1412 VRB05KT P6SM FEW250 FM132100 26011KT P6SM FEW250 FM140500 VRB05KT P6SM FEW250
KRIV 
10nm SE 
130400Z 1304/1410 VRB04KT 9999 FEW250 QNH2987INS BECMG 1318/1319 32009KT 9999 SCT250 QNH2986INS TEMPO 1320/1402 32012G18KT BECMG 1404/1405 VRB05KT 9999 FEW250 QNH2990INS TX37/1322Z TN10/1313Z
KSBD 
14nm NE 
130520Z 1306/1406 VRB05KT P6SM FEW250 FM132100 26011KT P6SM FEW250 FM140500 VRB05KT P6SM FEW250
NOTAMs
Click for the latest NOTAMs
NOTAMs are issued by the DoD/FAA and will open in a separate window not controlled by AirNav.

 

 
 

FBO, Fuel Providers, and Aircraft Ground Support

  
 Business Name 
 
 Contact 
 
 Services / Description 
 
Fuel Prices
 
Comments
  
 Raincross Aviation Services
951-359-7233
[web site]
[email]
Aviation fuel

More info about Raincross Aviation Services
Phillips 66
100LL
SS $4.49 
 Updated 09-Jun-2021
 
   write
 RAS JETPORT - Riverside
951-352-2631
951-352-1043
[web site]
[email]
Aviation fuel, Aircraft ground handling, Aircraft parking (ramp or tiedown), Hangars, Hangar leasing / sales, GPU / Power cart, ...
 
U.S. Government AIR Card   Contract Fuel   Crew cars   Enterprise Rent-A-Car   Hertz  
 
More info about RAS JETPORT - Riverside
Avfuel
100LL Jet A
FS $4.98 $3.60 
SS $4.58 --- 
 Updated 26-May-2021
 
   5 read write
FS=Full service
SS=Self service
Update Fuel Prices
 

Aviation Businesses, Services, and Facilities

  
 Business Name 
 
 Contact 
 
 Services / Description 
 
Distance
 
Comments
  
Leading Edge Avionics
Leading Edge Avionics
toll-free 855-955-6151
[web site]
[email]

Like us on facebook See us on instagram Follow us on twitter
Leading Edge Avionics is a FAA Certified Part 145 Repair Station (137R236D) that provides outstanding avionics repair and installation services for all General Aviation aircraft from business jets to helicopters to single engine airplanes. We are committed to delivering our customers with services that ensure uncompromised safety and the highest quality of workmanship and reliability, while exceeding our clients' expectations on all levels. 24/7 AOG Service is also available at all Southern California airports, so call us at (855) 955-6151 and let us exceed all your service expectations!
More info and photos of Leading Edge Avionics
located at KSNA  
   write
 

Where to Eat: Catering, Restaurants, Food shops

  
 Business Name 
 
 Contact 
 
 Services / Description 
 
Distance
 
Comments
  
D&D Airport Cafe 951-688-3337
no information available

If you are affiliated with D&D Airport Cafe and would like to show here your services, contact info, web link, logo, and more, click here
on airport  
   write
 

Would you like to see your business listed on this page?

 If your business provides an interesting product or service to pilots, flight crews, aircraft, or users of the Riverside Municipal Airport, you should consider listing it here.  To start the listing process, click on the button below
 
Add a business
 

Other Pages about Riverside Municipal Airport

www.riversideca.gov/airport
 
Update a link
 
Copyright © AirNav, LLC. All rights reserved. Privacy Policy  Contact